• In Uzbekistan
  • List of Countries
  • For 7 days
  • Water Temperature
  • Satellite Maps
  • Weather Map
  • Weather Widgets
  • user-avatar
    Login

    Hourly Weather Pabna

    Today, 23 May, Thursday

    Time Temperature Precipitation Wind Pressure Humidity
    00:00 +34°C° 0 mm 6 mps 751 mmHg 71%
    01:00 +34°C° 0 mm 5 mps 751 mmHg 74%
    02:00 +33°C° 0 mm 4 mps 751 mmHg 76%
    03:00 +33°C° 0 mm 4 mps 751 mmHg 78%
    04:00 +32°C° 0 mm 4 mps 751 mmHg 79%
    05:00 +32°C° 0 mm 5 mps 751 mmHg 80%
    06:00 +32°C° 0 mm 5 mps 751 mmHg 80%
    07:00 +33°C° 0 mm 5 mps 751 mmHg 74%
    08:00 +35°C° 0 mm 5 mps 752 mmHg 69%
    09:00 +36°C° 0 mm 5 mps 752 mmHg 63%
    10:00 +39°C° 0 mm 5 mps 752 mmHg 55%
    11:00 +41°C° 0 mm 5 mps 751 mmHg 48%
    12:00 +42°C° 0 mm 4 mps 751 mmHg 40%
    13:00 +43°C° 0 mm 4 mps 750 mmHg 36%
    14:00 +45°C° 0 mm 4 mps 749 mmHg 32%
    15:00 +47°C° 0 mm 4 mps 748 mmHg 29%
    16:00 +45°C° 0 mm 5 mps 748 mmHg 32%
    17:00 +43°C° 0 mm 5 mps 747 mmHg 36%
    18:00 +42°C° 0 mm 5 mps 747 mmHg 39%
    19:00 +39°C° 20.8 mm 5 mps 747 mmHg 54%
    20:00 +35°C° 20.8 mm 4 mps 748 mmHg 69%
    21:00 +32°C° 20.8 mm 4 mps 748 mmHg 85%
    22:00 +32°C° 0.7 mm 4 mps 749 mmHg 80%
    23:00 +33°C° 0.7 mm 5 mps 749 mmHg 74%

    Tomorrow, 24 May, Friday

    Time Temperature Precipitation Wind Pressure Humidity
    00:00 +33°C° 0.7 mm 5 mps 750 mmHg 69%
    01:00 +33°C° 0 mm 5 mps 750 mmHg 72%
    02:00 +32°C° 0 mm 5 mps 749 mmHg 75%
    03:00 +32°C° 0 mm 6 mps 749 mmHg 78%
    04:00 +32°C° 0 mm 6 mps 749 mmHg 78%
    05:00 +32°C° 0 mm 7 mps 750 mmHg 78%
    06:00 +32°C° 0 mm 7 mps 750 mmHg 79%
    07:00 +33°C° 0 mm 6 mps 750 mmHg 73%
    08:00 +35°C° 0 mm 5 mps 751 mmHg 68%
    09:00 +36°C° 0 mm 4 mps 751 mmHg 63%
    10:00 +38°C° 0 mm 4 mps 751 mmHg 57%
    11:00 +40°C° 0 mm 4 mps 750 mmHg 51%
    12:00 +42°C° 0 mm 4 mps 750 mmHg 46%
    13:00 +43°C° 0 mm 4 mps 749 mmHg 42%
    14:00 +44°C° 0 mm 3 mps 748 mmHg 39%
    15:00 +45°C° 0 mm 3 mps 748 mmHg 35%
    16:00 +42°C° 2.2 mm 4 mps 747 mmHg 46%
    17:00 +38°C° 2.2 mm 4 mps 746 mmHg 56%
    18:00 +36°C° 2.2 mm 5 mps 746 mmHg 67%
    19:00 +35°C° 0.7 mm 6 mps 746 mmHg 68%
    20:00 +35°C° 0.7 mm 7 mps 747 mmHg 70%
    21:00 +34°C° 0.7 mm 8 mps 748 mmHg 72%
    22:00 +34°C° 0 mm 7 mps 748 mmHg 73%
    23:00 +33°C° 0 mm 6 mps 749 mmHg 75%

    Day after tomorrow, 25 May, Saturday

    Time Temperature Precipitation Wind Pressure Humidity
    00:00 +33°C° 0 mm 5 mps 749 mmHg 77%
    01:00 +33°C° 0 mm 5 mps 748 mmHg 78%
    02:00 +32°C° 0 mm 5 mps 748 mmHg 79%
    03:00 +32°C° 0 mm 6 mps 748 mmHg 79%
    04:00 +32°C° 0 mm 5 mps 748 mmHg 80%
    05:00 +32°C° 0 mm 5 mps 748 mmHg 80%
    06:00 +32°C° 0 mm 5 mps 748 mmHg 80%
    07:00 +33°C° 0 mm 4 mps 748 mmHg 76%
    08:00 +34°C° 0 mm 4 mps 749 mmHg 72%
    09:00 +35°C° 0 mm 4 mps 749 mmHg 68%
    10:00 +37°C° 0 mm 4 mps 749 mmHg 62%
    11:00 +38°C° 0 mm 4 mps 749 mmHg 57%
    12:00 +41°C° 0 mm 4 mps 749 mmHg 51%
    13:00 +42°C° 0 mm 3 mps 748 mmHg 46%
    14:00 +43°C° 0 mm 3 mps 747 mmHg 40%
    15:00 +45°C° 0 mm 3 mps 746 mmHg 35%
    16:00 +44°C° 0 mm 3 mps 746 mmHg 37%
    17:00 +43°C° 0 mm 3 mps 745 mmHg 40%
    18:00 +42°C° 0 mm 4 mps 745 mmHg 43%
    19:00 +40°C° 0 mm 5 mps 746 mmHg 52%
    20:00 +38°C° 0 mm 6 mps 747 mmHg 62%
    21:00 +35°C° 0 mm 7 mps 748 mmHg 71%
    22:00 +34°C° 0 mm 6 mps 748 mmHg 72%
    23:00 +34°C° 0 mm 5 mps 748 mmHg 73%

    26 May, Sunday

    Time Temperature Precipitation Wind Pressure Humidity
    00:00 +34°C° 0 mm 5 mps 748 mmHg 74%
    01:00 +33°C° 0 mm 5 mps 748 mmHg 76%
    02:00 +33°C° 0 mm 5 mps 747 mmHg 77%
    03:00 +33°C° 0 mm 6 mps 747 mmHg 78%
    04:00 +33°C° 0 mm 6 mps 747 mmHg 79%
    05:00 +33°C° 0 mm 5 mps 748 mmHg 79%
    06:00 +33°C° 0 mm 5 mps 748 mmHg 80%
    07:00 +33°C° 0 mm 5 mps 749 mmHg 77%
    08:00 +34°C° 0 mm 5 mps 749 mmHg 74%
    09:00 +35°C° 0 mm 5 mps 750 mmHg 71%
    10:00 +36°C° 0 mm 5 mps 749 mmHg 68%
    11:00 +37°C° 0 mm 5 mps 749 mmHg 64%
    12:00 +37°C° 0 mm 5 mps 749 mmHg 61%
    13:00 +40°C° 0 mm 5 mps 748 mmHg 57%
    14:00 +41°C° 0 mm 5 mps 748 mmHg 53%
    15:00 +42°C° 0 mm 5 mps 747 mmHg 49%
    16:00 +41°C° 1.3 mm 5 mps 746 mmHg 53%
    17:00 +40°C° 1.3 mm 5 mps 746 mmHg 56%
    18:00 +39°C° 1.3 mm 6 mps 745 mmHg 60%
    19:00 +38°C° 6.9 mm 6 mps 747 mmHg 66%
    20:00 +35°C° 6.9 mm 6 mps 748 mmHg 72%
    21:00 +33°C° 6.9 mm 7 mps 749 mmHg 77%
    22:00 +33°C° 0 mm 6 mps 749 mmHg 78%
    23:00 +33°C° 0 mm 5 mps 749 mmHg 79%

    27 May, Monday

    Time Temperature Precipitation Wind Pressure Humidity
    00:00 +33°C° 0 mm 5 mps 749 mmHg 80%
    01:00 +32°C° 0 mm 4 mps 749 mmHg 82%
    02:00 +31°C° 0 mm 3 mps 748 mmHg 83%
    03:00 +31°C° 0 mm 3 mps 748 mmHg 85%
    04:00 +31°C° 0 mm 3 mps 748 mmHg 85%
    05:00 +32°C° 0 mm 4 mps 749 mmHg 84%
    06:00 +32°C° 0 mm 4 mps 749 mmHg 84%
    07:00 +33°C° 0 mm 4 mps 749 mmHg 78%
    08:00 +34°C° 0 mm 4 mps 750 mmHg 73%
    09:00 +36°C° 0 mm 4 mps 750 mmHg 68%
    10:00 +37°C° 0 mm 4 mps 750 mmHg 61%
    11:00 +40°C° 0 mm 4 mps 750 mmHg 55%
    12:00 +40°C° 0 mm 3 mps 749 mmHg 49%
    13:00 +42°C° 0 mm 3 mps 749 mmHg 44%
    14:00 +43°C° 0 mm 3 mps 748 mmHg 40%
    15:00 +43°C° 0 mm 2 mps 747 mmHg 35%
    16:00 +43°C° 0 mm 2 mps 747 mmHg 36%
    17:00 +43°C° 0 mm 2 mps 747 mmHg 37%
    18:00 +43°C° 0 mm 2 mps 746 mmHg 37%
    19:00 +40°C° 0.8 mm 3 mps 747 mmHg 47%
    20:00 +39°C° 0.8 mm 5 mps 748 mmHg 56%
    21:00 +36°C° 0.8 mm 6 mps 748 mmHg 65%
    22:00 +35°C° 0 mm 5 mps 749 mmHg 69%
    23:00 +35°C° 0 mm 4 mps 749 mmHg 72%

    28 May, Tuesday

    Time Temperature Precipitation Wind Pressure Humidity
    00:00 +34°C° 0 mm 3 mps 749 mmHg 75%
    01:00 +33°C° 0 mm 3 mps 749 mmHg 76%
    02:00 +33°C° 0 mm 3 mps 749 mmHg 77%
    03:00 +33°C° 0 mm 3 mps 749 mmHg 79%
    04:00 +33°C° 0 mm 3 mps 749 mmHg 79%
    05:00 +33°C° 0 mm 4 mps 749 mmHg 78%
    06:00 +33°C° 0 mm 4 mps 749 mmHg 78%
    07:00 +34°C° 0 mm 4 mps 750 mmHg 74%
    08:00 +34°C° 0 mm 4 mps 750 mmHg 70%
    09:00 +35°C° 0 mm 5 mps 751 mmHg 66%
    10:00 +37°C° 0 mm 4 mps 751 mmHg 60%
    11:00 +38°C° 0 mm 4 mps 750 mmHg 54%
    12:00 +40°C° 0 mm 3 mps 750 mmHg 47%
    13:00 +42°C° 0 mm 4 mps 749 mmHg 44%
    14:00 +43°C° 0 mm 4 mps 748 mmHg 40%
    15:00 +44°C° 0 mm 4 mps 747 mmHg 37%
    16:00 +43°C° 0 mm 4 mps 747 mmHg 39%
    17:00 +43°C° 0 mm 4 mps 747 mmHg 40%
    18:00 +42°C° 0 mm 4 mps 746 mmHg 42%
    19:00 +40°C° 1.7 mm 5 mps 747 mmHg 50%
    20:00 +38°C° 1.7 mm 6 mps 748 mmHg 58%
    21:00 +35°C° 1.7 mm 6 mps 748 mmHg 66%
    22:00 +34°C° 1.3 mm 7 mps 749 mmHg 68%
    23:00 +34°C° 1.3 mm 7 mps 749 mmHg 71%
    Show more